Volver al catálogo

SUPERVIEW NEO 3-02

ActivoCienciaSSO
NORAD 63208·PAYLOAD·🇨🇳 China

Lanzado Mar 15, 2025 desde Jiuquan Satellite Launch Center

Loading…

Próximos Pases (próximas 24 horas)

TLE

ActualizadoSource: Space-Track

Época: Sep 14, 2026, 22:45 UTC

1 63208U 25051A   26257.94831788  .00007194  00000-0  31831-3 0  9992
2 63208  97.4455 336.3611 0001398 131.1893 228.9464 15.21974350 83491

Sigue SUPERVIEW NEO 3-02 en tiempo real con AllMySat

Download on the App Store